Regional Weather Roundup
Issued by NWS

Home | Current Version | Previous Version | Text Only | Print | Product List | Glossary On
Versions: 1 2 3 4 5 6 7 8 9 10 11 12 13 14 15 16 17 18 19 20 21 22 23 24 25 26 27
000
ASUS42 KTBW 081017
RWRFL
FLORIDA REGIONAL WEATHER ROUNDUP
NATIONAL WEATHER SERVICE TAMPA BAY RUSKIN FL
500 AM EST THU DEC 08 2016

NOTE: "FAIR" INDICATES FEW OR NO CLOUDS BELOW 12,000 FEET WITH NO
SIGNIFICANT WEATHER AND/OR OBSTRUCTIONS TO VISIBILITY.

FLZ001>010-012>015-112-114-115-081100-
PANHANDLE FLORIDA

CITY           SKY/WX    TMP DP  RH WIND       PRES   REMARKS
PENSACOLA      CLEAR     50  46  86 N6        30.19R
PENSACOLA NAS  CLEAR     49  47  93 N5        30.19R
MILTON NAS     PTCLDY    47  46  97 N3        30.19
CRESTVIEW      CLEAR     47  44  90 CALM      30.18F
DUKE FIELD     FAIR      46  44  95 N5        30.16S WCI  43
VALPARAISO     MOCLDY    48  45  91 N3        30.17R
MARY ESTHER    PTCLDY    49  47  93 NW3       30.17R
TRI COUNTY     CLOUDY    48  48 100 CALM      30.18S
PANAMA CITY    FAIR      49  46  90 N7        30.16S
TYNDALL AFB    CLEAR     51  47  87 VRB7      30.17R
APALACHICOLA   PTCLDY    49  47  93 N5        30.15R

STATION/POSITION SKY/WX   TEMP    WIND        PRES    WAVE   SWELL
                          AIR SEA DIR/SP/G            HT/PER HT/PER
                          (F)     (DEG/KT/KT) (MB)    (FT/S) (FT/S)
30.1N   87.6W              57 69   20/ 12/ 16 1021.9R   2/ 3
29.2N   88.2W              67 75   20/ 14/ 16 1020.6F   2/ 7   2/ 7
28.8N   86.0W              67 75              1020.6R   2/ 3
PANAMA CITY BEAC           49 67   10/  6/ 11 1021.7F
TOWER C                    57     360/ 15/ 17 1021.1R
28.5N   84.5W              67 74  360/  8/ 10 1019.9R   2/ 7   2/ 7

$$
FLZ011-016>038-118-127-128-134-139-239-081100-
NORTH FLORIDA

CITY           SKY/WX    TMP DP  RH WIND       PRES   REMARKS
MARIANNA       CLEAR     48  47  96 NW5       30.17R
TALLAHASSEE    CLEAR     50  46  86 N8        30.14S
PERRY          PTCLDY    46  45  97 CALM      30.15R
CROSS CITY     PTCLDY    45  45 100 CALM      30.13R
LAKE CITY      FAIR      45  45 100 NW6       30.12S FOG     WCI  41
GAINESVILLE    CLEAR     50  49  96 NW8       30.11S
WILLISTON      CLOUDY    52  52 100 CALM      30.12R
PALATKA        FAIR      48  48 100 CALM      30.12R
MAYPORT NAS    CLEAR     54  51  90 NW3       30.11S
JACKSONVILLE   CLEAR     49  49 100 NW3       30.11S
JAX NAS        CLEAR     54  50  86 NW9       30.12S
FERNANDINA BEA FAIR      54  52  94 NW5       30.10R
ST AUGUSTINE   CLEAR     53  51  93 NW6       30.11S

STATION/POSITION SKY/WX   TEMP    WIND        PRES    WAVE   SWELL
                          AIR SEA DIR/SP/G            HT/PER HT/PER
                          (F)     (DEG/KT/KT) (MB)    (FT/S) (FT/S)
SHELL POINT      NOT AVBL
KEATON BEACH               50     360/  5/  7 1020.1R
CEDAR KEY                  55      20/  4/  6 1020.3R
FERNANDINA                 55 67  310/  5/  9 1019.3F
30.7N   81.3W                 66                N/A     2/12
MAYPORT                    54 67  310/  6/  8 1019.4S
31.4N   80.9W              58 65  290/ 14/ 16 1018.4S   2/ 3   2/10
ST AUGUSTINE               54 66  320/  8/ 11 1020.2R

$$
FLZ040-043>046-052-053-057-058-063-144-081100-
INTERIOR CENTRAL FLORIDA

CITY           SKY/WX    TMP DP  RH WIND       PRES   REMARKS
OCALA            N/A     46  43  87 N5        30.11S VSB 1/4 WCI  44
THE VILLAGES   FOG       54  54 100 CALM      30.02R VSB 0
LEESBURG       CLEAR     55  53  93 N6        30.11S
SANFORD        CLOUDY    58  57  97 N5        30.10R FOG
ORLANDO EXEC   CLEAR     59  56  89 N5        30.09F
ORLANDO INTL   CLEAR     57  55  93 N6        30.10S
KISSIMMEE      CLEAR     58  58 100 CALM      30.11R
WINTER HAVEN   CLEAR     59  56  89 N6        30.11S
LAKELAND       CLEAR     55  55 100 CALM      30.10S FOG
BARTOW         FAIR      59  59 100 N3        30.11S
OKEECHOBEE     CLEAR     59  57  94 N6        30.08F

$$
FLZ041-047-054-059-064-141-147-081100-
EAST CENTRAL FLORIDA

CITY           SKY/WX    TMP DP  RH WIND       PRES   REMARKS
DAYTONA BEACH  MOCLDY    56  56 100 NW5       30.10R
DELAND         CLOUDY    57  55  94 NW6       30.10S
JFK SPACE CTR  CLEAR     58  57  95 NW6       30.07S
CAPE CANAVERAL CLEAR     61  59  94 NW8       30.07S
PATRICK AFB    CLEAR     62  61  96 NW10      30.07S
MELBOURNE      CLEAR     59  58  96 NW6       30.08S
VERO BEACH     CLEAR     60  60 100 W5        30.08S
FT PIERCE      CLEAR     62  62 100 W5        30.07S FOG
STUART         CLEAR     68  66  94 NW6       30.07S

STATION/POSITION SKY/WX   TEMP    WIND        PRES    WAVE   SWELL
                          AIR SEA DIR/SP/G            HT/PER HT/PER
                          (F)     (DEG/KT/KT) (MB)    (FT/S) (FT/S)
TRIDENT PIER               62 73  310/  7/ 10 1018.3F
28.4N   80.5W                 72                N/A     1/11   2/11

$$
FLZ050-056-061-142-242-148-248-149-249-151-251-155-255-
160-260-081100-
WEST CENTRAL FLORIDA

CITY           SKY/WX    TMP DP  RH WIND       PRES   REMARKS
CRYSTAL RIVER  MOCLDY    54  52  94 CALM      30.12R
INVERNESS      CLOUDY    54  54 100 CALM      30.12R
BROOKSVILLE      N/A    N/A N/A N/A MISG        N/A
CLEARWATER AIR FAIR      57  55  94 CALM      30.10R
ST PETE CLEARW PTCLDY    62  59  90 CALM      30.11R
TAMPA INTL     CLEAR     58  56  93 CALM      30.11R
TAMPA EXEC     MOCLDY    54  52  94 CALM      30.10F FOG
PLANT CITY     PTCLDY    57  57 100 NE3       30.12S FOG
MACDILL AFB    CLEAR     55  55 100 E3        30.11R
PETER O KNIGHT CLEAR     61  61 100 CALM      30.12R
ST PETERSBURG    N/A    N/A N/A N/A MISG      30.09R
SARASOTA       CLOUDY    61  59  93 CALM      30.09S
VENICE         MOCLDY    63  61  94 NE5       30.11R

STATION/POSITION SKY/WX   TEMP    WIND        PRES    WAVE   SWELL
                          AIR SEA DIR/SP/G            HT/PER HT/PER
                          (F)     (DEG/KT/KT) (MB)    (FT/S) (FT/S)
CLEARWATER BEACH           67 71  330/ 12/ 14 1019.6R
MIDDLE TAMPA BAY           66     360/  6/  8 1019.8R
VENICE                     63 71   20/  7/  8 1018.9R

$$
FLZ066-069-070-075>078-162-262-165-265-081100-
SOUTHWEST FLORIDA AND KEYS

CITY           SKY/WX    TMP DP  RH WIND       PRES   REMARKS
PUNTA GORDA    CLEAR     61  60  97 N7        30.11R
FT MYERS       PTCLDY    65  60  84 N8        30.08R
SOUTHWEST INTL CLOUDY    64  59  83 N7        30.08R
NAPLES         MOCLDY    68  62  81 N6        30.06S
MARCO ISLAND   PTCLDY    66  63  88 N7        30.07R
MARATHON       CLEAR     79  74  84 NE6       30.04S
KEY WEST NAS   CLEAR     74  70  87 NE7       30.05R
KEY WEST INTL  CLEAR     76  72  87 NE5       30.05S

STATION/POSITION SKY/WX   TEMP    WIND        PRES    WAVE   SWELL
                          AIR SEA DIR/SP/G            HT/PER HT/PER
                          (F)     (DEG/KT/KT) (MB)    (FT/S) (FT/S)
NAPLES                        74              1018.0R
26.0N   85.6W              74 77   80/ 12/ 14 1018.3R   2/ 7   2/ 7
DRY TORTUGAS               74      70/  7/  7 1017.7S
SAND KEY                   76      60/  9/ 10 1017.9R
LONG KEY                   77 80   20/  9/ 11 1017.5S
MOLASSES REEF              78 79   80/  2/  3 1017.5

$$
FLZ067-068-071>074-168-172>174-081100-
SOUTHEAST FLORIDA

CITY           SKY/WX    TMP DP  RH WIND       PRES   REMARKS
W PALM BEACH   PTCLDY    70  68  93 CALM      30.06S
FT LAUDER-EXEC CLEAR     73  70  90 CALM      30.04S
FT LAUDERDALE  MOCLDY    75  74  96 CALM      30.04S
POMPANO BEACH  CLEAR     73  71  93 CALM      30.05R FOG
PEMBROKE PINES CLEAR     74  73  97 CALM      30.06S
OPA LOCKA      CLEAR     75  73  93 CALM      30.05S
MIAMI          PTCLDY    73  72  96 CALM      30.05S
WEST KENDALL   CLEAR     72  72 100 CALM      30.05R FOG
HOMESTEAD      CLEAR     74  74 100 NW3       30.04R

STATION/POSITION SKY/WX   TEMP    WIND        PRES    WAVE   SWELL
                          AIR SEA DIR/SP/G            HT/PER HT/PER
                          (F)     (DEG/KT/KT) (MB)    (FT/S) (FT/S)
PORT EVERGLADES            76     290/  4/  5 1017.3R
VIRGINIA KEY               74 84  340/  2/  2 1017.9R
LAKE WORTH                 74 79  330/  2/  3 1017.3R
FOWEY ROCKS                76 78  350/  3/  4 1018.0R

$$





USA.gov is the U.S. government's official web portal to all federal, state and local government web resources and services.